Weather History for Charleston, WV

Change the Weather History Date:

Monday, April 15, 2013

  Actual Average Record
Temperature  
Mean Temperature 62 °F 56 °F  
Max Temperature 70 °F 68 °F 89 °F (1994)
Min Temperature 54 °F 45 °F 25 °F (1957)
Degree Days  
Heating Degree Days 3 10  
Month to date heating degree days 154 177  
Since 1 July heating degree days 4314 4231  
Cooling Degree Days 0 1  
Month to date cooling degree days 21 14  
Year to date cooling degree days 21 19  
Growing Degree Days 12 (Base 50)    
Moisture  
Dew Point 48 °F    
Average Humidity 65    
Maximum Humidity 83    
Minimum Humidity 47    
Precipitation  
Precipitation 0.05 in 0.10 in 2.10 in (1922)
Month to date precipitation 0.57 1.56  
Year to date precipitation 9.77 11.66  
Snow  
Snow 0.00 in - - ()
Month to date snowfall 0.0  
Since 1 September snowfall 25.3  
Snow Depth 0.00 in    
Sea Level Pressure  
Sea Level Pressure 30.03 in    
Wind  
Wind Speed 9 mph (SE)    
Max Wind Speed 21 mph    
Max Gust Speed 28 mph    
Visibility 10 miles    
Events Rain    
T = Trace of Precipitation, MM = Missing Value Source: NWS Daily Summary

Daily Weather History Graph

Daily Weather History Graph

Search for Another Location

Airport:

Trip Planner

Search our weather history database for the weather conditions in past years. The results will help you decide how hot, cold, wet, or windy it might be!

Date:

Astronomy

Apr. 15, 2013 Rise Set
Actual Time 6:50 AM EDT 8:03 PM EDT
Civil Twilight 6:22 AM EDT 8:30 PM EDT
Nautical Twilight 5:50 AM EDT 9:03 PM EDT
Astronomical Twilight 5:16 AM EDT 9:37 PM EDT
Moon 10:17 AM EDT 12:11 AM EDT
Length of Visible Light 14h 07m
Length of Day
13h 12m
Waxing Crescent, 24% of the Moon is Illuminated
Apr 15
Waxing Crescent
Apr 18
First Quarter
Apr 25
Full
May 2
Last Quarter
May 9
New

Hourly Weather History & Observations

Time (EDT) Temp. Dew Point Humidity Pressure Visibility Wind Dir Wind Speed Gust Speed Precip Events Conditions
12:54 AM 66.0 °F 42.1 °F 42% 29.98 in 10.0 mi SSE 5.8 mph - 0.00 in   Overcast
1:54 AM 64.0 °F 44.1 °F 48% 29.99 in 10.0 mi South 10.4 mph 24.2 mph N/A   Overcast
2:54 AM 62.1 °F 46.0 °F 56% 29.98 in 10.0 mi SE 9.2 mph 18.4 mph N/A   Overcast
3:54 AM 59.0 °F 46.0 °F 62% 30.00 in 10.0 mi SE 12.7 mph 17.3 mph 0.00 in Rain Light Rain
4:54 AM 55.9 °F 48.9 °F 77% 30.01 in 10.0 mi East 4.6 mph - 0.01 in Rain Light Rain
5:54 AM 55.0 °F 50.0 °F 83% 30.00 in 10.0 mi ENE 6.9 mph - 0.04 in Rain Light Rain
6:54 AM 54.0 °F 50.0 °F 86% 30.01 in 10.0 mi ENE 4.6 mph - 0.00 in   Overcast
7:54 AM 55.0 °F 50.0 °F 83% 30.01 in 10.0 mi East 5.8 mph - N/A   Overcast
8:54 AM 57.0 °F 50.0 °F 77% 30.04 in 10.0 mi Calm Calm - N/A   Overcast
9:54 AM 59.0 °F 48.9 °F 69% 30.04 in 10.0 mi SSE 8.1 mph - 0.00 in   Overcast
10:54 AM 61.0 °F 48.9 °F 64% 30.05 in 10.0 mi SSE 12.7 mph 18.4 mph N/A   Overcast
11:54 AM 61.0 °F 48.0 °F 62% 30.07 in 10.0 mi SSE 10.4 mph 18.4 mph N/A   Overcast
12:54 PM 61.0 °F 48.0 °F 62% 30.07 in 10.0 mi SSE 6.9 mph 16.1 mph N/A   Overcast
1:54 PM 64.9 °F 48.9 °F 56% 30.05 in 10.0 mi SE 17.3 mph 26.5 mph N/A   Mostly Cloudy
2:54 PM 66.0 °F 48.9 °F 54% 30.05 in 10.0 mi SSE 10.4 mph 20.7 mph N/A   Mostly Cloudy
3:54 PM 68.0 °F 48.9 °F 50% 30.04 in 10.0 mi SE 13.8 mph 24.2 mph N/A   Overcast
4:54 PM 70.0 °F 48.0 °F 46% 30.03 in 10.0 mi SSE 13.8 mph 19.6 mph N/A   Mostly Cloudy
5:54 PM 66.9 °F 48.0 °F 51% 30.04 in 10.0 mi SE 11.5 mph 23.0 mph N/A   Scattered Clouds
6:54 PM 66.9 °F 48.0 °F 51% 30.04 in 10.0 mi SE 10.4 mph 16.1 mph N/A   Partly Cloudy
7:54 PM 64.0 °F 48.0 °F 56% 30.05 in 10.0 mi SSE 13.8 mph 25.3 mph N/A   Clear
8:54 PM 63.0 °F 48.0 °F 58% 30.06 in 10.0 mi SSE 8.1 mph 16.1 mph N/A   Clear
9:54 PM 62.1 °F 48.9 °F 62% 30.07 in 10.0 mi SE 5.8 mph - N/A   Clear
10:54 PM 62.1 °F 48.9 °F 62% 30.07 in 10.0 mi SSE 11.5 mph - N/A   Clear
11:54 PM 62.1 °F 50.0 °F 65% 30.07 in 10.0 mi SSE 9.2 mph - N/A   Clear